Home   Weather   Palestine   Past weeks

Flag for USA Past Weather in Palestine, Texas, USA — Yesterday and Last 2 Weeks

Now
58 °F

Sunny.


Feels Like: 55 °F
Forecast: 51 / 67 °F
Wind: 13 mph from West

Location: Palestine Municipal Airport

Current Time: Apr 30, 2017 at 12:13:40 pm

Latest Report: Apr 30, 2017 at 11:35 am


Visibility: 10 mi

Pressure: 29.92 "Hg

Humidity: 59%

Dew Point: 43 °F

Location of PalestineLocation

Past Weather in Palestine — Graph

°F

Palestine Temperature Yesterday

Maximum temperature yesterday: 88 °F (at 2:15 pm)
Minimum temperature yesterday: 58 °F (at 11:35 pm)
Average temperature yesterday: 77 °F

High & Low Weather Summary for the Past Weeks

 TemperatureHumidityPressure
High90 °F (Apr 28, 4:35 pm)100% (Apr 17, 5:15 am)30.16 "Hg (Apr 17, 5:15 am)
Low43 °F (Apr 23, 6:15 am)39% (Apr 23, 3:35 pm)29.48 "Hg (Apr 26, 3:35 am)
Average69 °F79%29.88 "Hg
* Reported Apr 15 10:15 am — Apr 30 10:55 am, Palestine, Weather by CustomWeather, © 2017

Note: Actual official high and low records may vary slightly from our data, if they occured in-between our weather recording intervals... More about our weather records

Advertising

Palestine Weather History for the Previous 24 Hours

Scroll right to see more
 ConditionsComfort  
Time TempWeatherWind HumidityBarometerVisibility
10:55 am
Sun, Apr 30
56 °FSunny.20 mph64%29.91 "Hg10 mi
10:15 am53 °FPartly sunny.10 mph76%29.90 "Hg10 mi
9:55 am52 °FPartly sunny.12 mph75%29.90 "Hg10 mi
9:35 am52 °FMore clouds than sun.14 mph77%29.93 "Hg10 mi
9:15 am52 °FPartly sunny.7 mph84%29.88 "Hg10 mi
8:55 am52 °FSunny.10 mph86%29.88 "Hg10 mi
8:35 am52 °FLight rain. Broken clouds.16 mph87%29.89 "Hg10 mi
7:55 am53 °FLight rain. Partly sunny.13 mph94%29.85 "Hg10 mi
7:35 am53 °FLight rain. Partly sunny.7 mph97%29.83 "Hg10 mi
6:55 am53 °FLight rain. Broken clouds.5 mph97%29.86 "Hg10 mi
6:35 am53 °FLight rain. Overcast.6 mph97%29.83 "Hg10 mi
5:55 am53 °FPassing clouds.8 mph93%29.83 "Hg10 mi
5:35 am53 °FPassing clouds.5 mph94%29.77 "Hg10 mi
5:15 am54 °FLight rain. Partly cloudy.6 mph93%29.77 "Hg10 mi
4:55 am55 °FLight rain. Passing clouds.9 mph89%29.78 "Hg10 mi
4:35 am56 °FPassing clouds.16 mph84%29.84 "Hg10 mi
4:15 am56 °FPassing clouds.12 mph83%29.79 "Hg10 mi
3:55 am56 °FOvercast.13 mph86%29.81 "Hg10 mi
3:35 am56 °FOvercast.9 mph89%29.82 "Hg10 mi
2:55 am56 °FOvercast.8 mph90%29.78 "Hg10 mi
2:35 am56 °FOvercast.8 mph91%29.78 "Hg10 mi
2:15 am56 °FOvercast.8 mph91%29.81 "Hg10 mi
1:55 am56 °FOvercast.9 mph93%29.79 "Hg10 mi
1:35 am56 °FOvercast.8 mph94%29.78 "Hg10 mi
1:15 am56 °FOvercast.7 mph93%29.79 "Hg10 mi
12:55 am57 °FOvercast.6 mph94%29.81 "Hg10 mi
12:35 am57 °FOvercast.12 mph94%29.82 "Hg10 mi
12:15 am57 °FMostly cloudy.12 mph95%29.82 "Hg10 mi
11:55 pm
Sat, Apr 29
58 °FOvercast.12 mph96%29.83 "Hg10 mi
11:35 pm58 °FLight rain. Overcast.8 mph95%29.80 "Hg10 mi
10:55 pm58 °FOvercast.17 mph91%29.77 "Hg10 mi
10:35 pm59 °FOvercast.15 mph92%29.77 "Hg10 mi
10:15 pm60 °FMostly cloudy.14 mph94%29.76 "Hg10 mi
9:55 pm61 °FDrizzle. Mostly cloudy.15 mph97%29.74 "Hg10 mi
9:35 pm62 °FLight rain. Overcast.10 mph96%29.71 "Hg10 mi
9:15 pm64 °FHeavy rain. Mostly cloudy.18 mph91%29.70 "Hg10 mi
8:55 pm68 °FPassing clouds.12 mph86%29.66 "Hg10 mi
8:35 pm77 °FFog.8 mph93%29.59 "Hg5 mi
8:15 pm78 °FFog.9 mph91%29.60 "Hg5 mi
7:55 pm79 °FDrizzle. Cloudy.9 mph88%29.58 "Hg5 mi
7:15 pm79 °FLight rain. Cloudy.12 mph89%29.56 "Hg5 mi
6:55 pm80 °FLight rain. Mostly cloudy.14 mph87%29.56 "Hg5 mi
6:35 pm81 °FMostly cloudy.14 mph84%29.56 "Hg5 mi
5:55 pm82 °FMostly cloudy.14 mph83%29.55 "Hg7 mi
5:35 pm82 °FPartly sunny.14 mph81%29.53 "Hg7 mi
5:15 pm83 °FPartly sunny.17 mph81%29.54 "Hg7 mi
4:55 pm82 °FPartly sunny.12 mph83%29.55 "Hg7 mi
4:35 pm83 °FBroken clouds.17 mph81%29.56 "Hg5 mi
4:15 pm85 °FScattered clouds.12 mph76%29.58 "Hg5 mi
3:55 pm84 °FScattered clouds.13 mph76%29.58 "Hg5 mi
3:35 pm86 °FBroken clouds.12 mph74%29.60 "Hg5 mi
2:35 pm87 °FPartly sunny.15 mph68%29.60 "Hg5 mi
2:15 pm88 °FScattered clouds.15 mph69%29.59 "Hg7 mi
1:55 pm85 °FBroken clouds.10 mph76%29.59 "Hg5 mi
12:55 pm83 °FMostly cloudy.9 mph79%29.62 "Hg7 mi
12:35 pm82 °FOvercast.13 mph80%29.64 "Hg7 mi
12:15 pm81 °FOvercast.13 mph81%29.65 "Hg7 mi
Weather by CustomWeather, © 2017

See weather overviewHow to use our weather pages